Location: Gniazdowice
(50.2124°N, 20.2673°E)
Time: 22:40:36
(UTC+00:00)

Cosmos 1703 Rocket - Pass Details

Date: 23 May 2024
Orbit: 602 x 629 km, 82.5° (Epoch: 22 June)

Event Time Altitude Azimuth Distance (km) Brightness Sun altitude
Exits shadow 00:59:01 18° 226° (SW) 1,533 5.0 -12.4°
Maximum altitude 01:01:53 39° 287° (WNW) 943 4.3 -12.1°
Drops below altitude 10° 01:06:05 10° 357° (N) 2,017 7.0 -11.7°
Sets 01:08:28 0° 5° (N) 2,932 8.1 -11.5°
